Flag for Germany Weather past 2 weeks in Freital, Saxony, Germany

Now
40 °F

Passing clouds.


Feels Like: 40 °F
Forecast: 33 / 47 °F
Wind: 2 mph from South

Location: Dresden-Klotzsche

Current Time: Feb 28, 2015 at 5:37:26 PM

Latest Report: Feb 28, 2015 at 5:00 PM


Visibility: 25 mi

Pressure: 30.11 "Hg

Humidity: 64%

Dew point: 28 °F

Location of FreitalLocation

Historic Weather in Freital — Graph

°F

Freital temperature yesterday

Maximum temperature yesterday: 48 °F (at 3:00 PM)
Minimum temperature yesterday: 29 °F (at 5:00 AM)
Average temperature yesterday: 39 °F

Past Weeks' High & Low Weather Summary

 TemperatureHumidityPressure
High53 °F (Feb 20, 3:00 PM)97% (Feb 17, 6:00 PM)30.76 "Hg (Feb 17, 6:00 PM)
Low25 °F (Feb 20, 8:00 AM)34% (Feb 26, 3:00 PM)29.44 "Hg (Feb 21, 2:00 PM)
Average37 °F77%30.05 "Hg
* Reported Feb 13 4:00 PM — Feb 28 4:00 PM, Freital, Weather by CustomWeather, © 2015

Note: Actual official high and low records may vary slightly from our data, if they occured in-between our weather recording intervals... More about our weather records

Advertising

Freital weather history for previous 24 hours

 ConditionsComfort  
Time TempWeatherWind HumidityBarometerVisibility
4:00 PM
Sat, Feb 28
42 °FScattered clouds.5 mph61%30.11 "Hg25 mi
3:00 PM40 °FOvercast.3 mph65%30.12 "Hg22 mi
2:00 PM39 °FOvercast.5 mph71%30.14 "Hg16 mi
1:00 PM39 °FOvercast.5 mph76%30.16 "Hg16 mi
12:00 PM38 °FOvercast.3 mph79%30.17 "Hg14 mi
11:00 AM37 °FOvercast.3 mph90%30.17 "Hg8 mi
10:00 AM35 °FLow clouds.3 mph95%30.17 "Hg7 mi
9:00 AM35 °FLow clouds.5 mph96%30.16 "Hg4 mi
8:00 AM35 °FLight rain. Low clouds.3 mph96%30.15 "Hg3 mi
7:00 AM36 °FRain. Low clouds.3 mph95%30.13 "Hg4 mi
6:00 AM36 °FChilly.5 mph95%30.11 "HgN/A
5:00 AM36 °FLow clouds.6 mph95%30.10 "Hg6 mi
3:00 AM36 °FDrizzle. Low clouds.3 mph95%30.09 "Hg3 mi
2:00 AM35 °FFog.3 mph97%30.09 "Hg2 mi
1:00 AM35 °FFog.3 mph97%30.08 "Hg2 mi
12:00 AM34 °FOvercast.5 mph83%30.07 "Hg8 mi
11:00 PM
Fri, Feb 27
35 °FPassing clouds.3 mph79%30.05 "Hg9 mi
9:00 PM37 °FClear.3 mph74%30.01 "Hg11 mi
8:00 PM40 °FClear.2 mph69%29.98 "Hg12 mi
7:00 PM42 °FPassing clouds.1 mph62%29.96 "Hg11 mi
6:00 PM45 °FPassing clouds.2 mph57%29.93 "Hg7 mi
5:00 PM46 °FSunny.3 mph54%29.90 "Hg12 mi
Weather by CustomWeather, © 2015

See weather overviewHow to use our weather pages